SCP
0 0 0 0 0 0 0 0 0 0 0 0 0 0 0 0 0 0 0 0 0 0 0 0 0 0 0 0 0 0 0 0 0 0 0 0 0 0 0 0 0 0 -0
0 0 0 0 0 0 0 0 0 0 0 0 0 0 0 0 0 0 0 0 0 0 0 0 0 0 0 0 0 0 0 0 0 0 0 0 0 0 0 0 0 0 0
0 0 0 0 0 0 0 0 0 0 0 0 0 0 0 0 0 0 0 0 0 0 0 0 0 0 0 0 0 0 0 0 0 0 0 0 0 0 0 0 0 -0 0
0 0 0 0 0 0 0 0 0 0 0 0 0 0 0 0 0 0 0 0 0 0 0 0 0 0 0 0 0 0 0 0 0 0 0 0 0 0 0 0 0 -0 -0
0 0 0 0 0 0 0 0 0 0 0 0 0 0 0 0 0 0 0 0 0 0 0 0 0 0 0 0 0 0 0 0 0 0 0 0 0 0 0 -0 -0 -0 -0
0 0 0 0 0 0 0 0 0 0 0 0 0 0 0 0 0 0 0 0 0 0 0 0 0 0 0 0 0 0 0 0 0 0 0 0 0 0 -0 -0 -0 -0 -0
0 0 0 0 0 0 0 0 0 0 0 0 0 0 0 0 0 0 0 0 0 0 0 0 0 0 0 0 0 0 0 0 0 0 0 0 0 -0 -0 -0 -0 -0 -0
0 0 0 0 0 0 0 0 0 0 0 0 0 0 0 0 0 0 0 0 0 0 0 0 0 0 0 0 0 0 0 0 0 0 0 0 0 -0 -0 -0 -0 -0 -0
0 0 0 0 0 0 0 0 0 0 0 0 0 0 0 0 0 0 0 0 0 0 0 0 0 0 0 0 0 0 0 0 0 0 0 0 0 -0 -0 -0 -0 -0 -0
0 0 0 0 0 0 0 0 0 0 0 0 0 0 0 0 0 0 0 0 0 0 0 0 0 0 0 0 0 0 0 0 0 0 0 0 0 -0 -0 -0 -0 -0 -0
0 0 0 0 0 0 0 0 0 0 0 0 0 0 0 0 0 0 0 0 0 0 0 0 0 0 0 0 0 0 0 0 0 0 0 0 0 -0 -0 -0 -0 -0 -0
0 0 0 0 0 0 0 0 0 0 0 0 0 0 0 0 0 0 0 0 0 0 0 0 0 0 0 0 0 0 0 0 0 0 0 0 0 -0 -0 -0 -0 -0 -0
0 0 0 0 0 0 0 0 0 0 0 0 0 0 0 0 0 0 0 0 0 0 0 0 0 0 0 0 0 0 0 0 0 0 0 0 0 0 0 -0 -0 0 0
0 0 0 0 0 0 0 0 0 0 0 0 0 0 0 0 0 0 0 0 0 0 0 0 0 0 0 0 0 0 0 0 0 0 0 0 0 0 0 0 0 0 0
0 0 0 0 0 0 0 0 0 0 0 0 0 0 0 0 0 0 0 0 0 0 0 0 0 0 0 0 0 0 0 0 0 0 0 0 0 0 0 0 0 0 0
0 0 0 0 0 0 0 0 0 0 0 0 0 0 0 0 0 0 0 0 0 0 0 0 0 0 0 0 0 0 0 0 0 0 0 0 0 0 0 0 0 0 0
0 0 0 0 0 0 0 0 0 0 0 0 0 0 0 0 0 0 0 0 0 0 0 0 0 0 0 0 0 0 0 0 0 0 0 0 0 0 0 0 0 0 0
0 0 0 0 0 0 0 0 0 0 0 0 0 0 0 0 0 0 0 0 0 0 0 0 0 0 0 0 0 0 0 0 0 0 0 0 0 0 0 0 0 0 0
0 0 0 0 0 0 0 0 0 0 0 0 0 0 0 0 0 0 0 0 0 0 0 0 0 0 0 0 0 0 0 0 0 0 0 0 0 0 0 0 0 0 0
0 0 0 0 0 0 0 0 0 0 0 0 0 0 0 0 0 0 0 0 0 0 0 0 0 0 0 0 0 0 0 0 0 0 0 0 0 0 0 0 0 0 0
0 0 0 0 0 0 0 0 0 0 0 0 0 0 0 0 0 0 0 0 0 0 0 0 0 0 0 0 0 0 0 0 0 0 0 0 0 0 0 0 0 0 0
0 0 0 0 0 0 0 0 0 0 0 0 0 0 0 0 0 0 0 0 0 0 0 0 0 0 0 0 0 0 0 0 0 0 0 0 0 0 0 0 0 0 0
0 0 0 0 0 0 0 0 0 0 0 0 0 0 0 0 0 0 0 0 0 0 0 0 0 0 0 0 0 0 0 0 0 0 0 0 0 0 0 0 0 0 0
0 0 0 0 0 0 0 0 0 0 0 0 0 0 0 0 0 0 0 0 0 0 0 0 0 0 0 0 0 0 0 0 0 0 0 0 0 0 0 0 0 0 0
0 0 0 0 0 0 0 0 0 0 0 0 0 0 0 0 0 0 0 0 0 0 0 0 0 0 0 0 0 0 0 0 0 0 0 0 0 0 0 0 0 0 0
0 0 0 0 0 0 0 0 0 0 0 0 0 0 0 0 0 0 0 0 0 0 0 0 0 0 0 0 0 0 0 0 0 0 0 0 0 0 0 0 0 0 0
Wind_Speed_500mb
93 96 102 100 98 98 99 98 104 99 96 95 83 75 67 67 70 75 75 74 72 65 59 55 50 45 44 37 35 31 30 29 29 26 10 4 3 3 7 12 16 19 21
86 90 97 95 90 95 99 93 96 98 95 93 87 78 71 65 63 69 75 73 72 69 63 57 52 50 46 41 34 33 31 29 29 20 14 13 11 8 8 11 13 16 17
77 83 88 90 88 90 92 93 93 93 92 95 90 86 77 70 63 66 71 71 70 67 62 60 53 52 48 44 40 36 30 30 27 21 22 23 18 16 14 15 15 17 20
71 76 82 88 85 84 88 87 89 87 89 92 91 81 79 70 67 68 69 69 68 62 59 57 53 52 47 44 43 34 33 31 30 28 31 29 26 24 21 21 19 19 19
66 73 78 79 78 77 82 85 88 89 88 88 86 80 77 72 73 69 68 67 65 61 59 54 53 45 46 44 39 38 39 36 35 37 36 35 35 32 27 25 22 20 19
52 65 72 73 74 74 76 81 87 89 87 87 83 79 77 75 74 66 68 67 62 60 59 56 51 47 50 44 39 38 34 37 44 44 42 41 40 37 33 28 24 18 14
47 53 61 65 72 76 76 78 88 91 86 87 80 77 76 76 72 66 67 63 62 61 56 56 54 52 52 47 46 43 42 42 37 37 44 46 43 38 33 30 27 24 22
49 52 56 61 67 72 73 80 86 86 85 85 80 76 77 79 75 72 70 67 65 61 60 54 53 56 54 54 54 52 53 52 50 47 44 46 42 38 35 32 29 25 24
50 54 57 60 64 70 74 77 80 81 80 81 79 80 83 78 74 74 74 73 70 63 57 59 55 55 57 56 57 62 63 59 55 53 51 47 44 41 37 33 30 25 24
52 54 56 59 63 67 67 69 74 74 75 78 78 80 80 75 76 75 76 74 67 67 63 58 58 56 57 59 62 70 70 68 67 64 58 53 48 44 40 32 26 21 18
52 53 56 56 59 59 60 65 69 72 71 73 78 79 75 74 75 76 70 65 70 70 68 68 63 59 60 63 65 66 67 70 67 63 60 55 51 46 39 31 25 20 16
52 52 53 53 54 56 60 65 68 67 72 76 79 77 74 72 72 71 66 66 62 67 68 66 65 66 64 69 69 67 68 70 70 66 62 59 54 45 37 30 25 20 14
52 50 52 52 53 57 61 65 68 71 75 80 81 79 76 72 70 63 63 62 62 64 64 64 68 73 76 76 73 73 75 74 71 69 64 59 49 42 37 30 24 17 10
50 48 49 52 52 56 59 64 71 76 79 82 83 79 76 74 72 72 70 67 65 64 62 66 75 80 80 80 80 78 75 73 71 66 63 54 49 43 38 32 25 18 11
47 46 49 52 55 58 58 63 68 70 72 78 78 79 82 82 80 78 78 74 71 70 72 78 85 86 89 86 82 79 76 74 71 67 62 56 50 46 40 34 28 22 17
49 50 53 57 58 59 59 61 62 62 63 65 65 68 71 69 68 69 68 73 74 78 84 98 99 93 93 94 91 87 82 79 73 66 60 56 51 46 42 38 32 27 23
50 53 56 57 59 61 61 62 64 57 57 57 56 58 59 60 64 68 68 68 68 69 78 84 92 97 97 94 92 91 89 83 73 67 64 60 55 50 45 40 35 30 28
51 53 56 60 61 63 62 63 64 67 67 63 57 55 56 54 58 63 69 71 75 77 82 87 94 101 106 99 95 91 86 80 75 70 69 63 57 54 50 44 39 35 34
55 56 58 59 60 63 63 65 68 68 67 67 63 56 53 51 51 64 72 77 86 90 87 89 96 94 93 95 93 88 82 78 76 75 72 65 60 58 52 46 42 39 39
55 56 58 61 62 63 64 65 66 66 67 67 67 68 65 61 64 72 78 81 81 85 91 90 90 92 95 94 88 83 80 76 76 74 70 66 61 57 52 46 43 41 41
58 57 58 61 63 64 64 64 64 63 64 65 63 60 65 72 75 79 86 87 88 89 86 90 89 89 93 90 85 82 80 76 75 71 68 64 59 55 48 45 43 43 44
60 60 59 62 64 63 66 65 63 64 65 63 60 57 60 65 70 73 78 85 86 82 82 83 84 86 88 86 84 81 79 75 71 67 63 60 55 51 48 46 46 45 45
57 60 62 62 63 62 61 60 58 58 56 55 55 56 61 63 64 68 74 79 84 86 79 78 80 81 81 80 79 77 75 71 66 61 58 56 52 51 50 49 48 47 48
56 58 63 64 65 63 63 63 60 56 53 52 50 50 53 57 66 70 73 77 84 76 72 77 78 78 78 77 78 75 69 65 62 58 54 53 51 50 50 50 49 50 51
52 55 60 63 62 63 61 58 57 53 49 49 46 50 58 64 66 69 72 74 71 70 74 73 72 72 72 72 72 72 69 64 60 56 53 51 50 50 52 51 52 52 51
50 52 55 58 59 62 62 63 63 62 60 56 56 55 57 60 65 70 72 69 66 68 70 70 68 67 69 70 70 69 65 60 58 55 53 53 52 52 51 51 52 52 52
Wind_Direction_500mb
232 231 230 227 226 225 226 227 230 233 238 240 235 230 227 231 234 233 235 235 235 237 238 238 240 238 238 235 234 235 235 237 239 236 257 239 168 79 48 49 44 43 40
231 230 230 229 226 224 225 224 228 231 236 240 237 233 227 228 232 231 230 232 232 234 237 236 236 233 231 232 231 231 231 230 232 227 199 181 167 146 99 83 76 68 60
229 229 228 229 226 225 224 222 226 228 232 236 236 233 225 222 226 229 230 230 231 234 237 238 236 232 229 227 226 223 223 222 218 200 181 175 169 151 131 119 107 90 70
226 226 227 228 223 225 223 218 222 225 230 233 234 233 228 222 222 223 226 227 229 233 235 234 232 230 228 229 222 220 215 212 206 185 175 171 163 152 143 136 121 99 84
225 224 227 229 227 223 221 218 220 224 230 232 233 230 227 222 220 219 221 224 226 225 226 227 226 225 227 224 224 218 208 199 197 180 174 167 161 153 150 138 137 111 86
229 227 229 228 227 223 221 220 220 223 225 229 229 227 224 218 219 219 223 221 221 221 222 219 218 220 219 219 217 212 207 196 188 179 172 166 156 153 146 139 123 119 104
240 233 230 227 226 224 222 220 220 221 223 227 226 221 217 220 217 216 218 220 221 219 219 220 216 215 217 213 205 201 193 181 186 180 168 163 153 148 140 132 123 113 100
244 237 232 227 225 225 223 222 220 222 225 226 222 217 213 215 217 215 212 217 215 217 219 216 220 216 213 208 200 193 184 179 176 170 169 157 153 146 139 132 129 122 107
248 241 235 231 227 224 221 222 222 221 221 222 219 212 211 213 212 213 211 209 210 209 211 216 214 213 210 202 196 187 178 177 171 171 166 162 154 147 143 140 139 133 112
249 247 239 234 230 226 223 220 221 221 218 217 213 212 212 209 210 210 211 210 207 208 207 208 208 205 201 197 191 185 178 175 171 168 168 164 158 155 151 148 137 131 122
244 240 237 234 231 228 223 220 218 214 213 212 209 208 208 207 208 210 210 214 216 209 206 200 196 194 196 189 186 186 181 173 171 170 168 166 164 163 158 153 147 131 117
236 233 232 231 227 223 219 215 214 212 208 205 203 202 201 202 206 208 209 212 212 213 205 199 193 189 188 183 182 184 182 177 173 174 174 172 172 168 163 159 152 145 130
227 226 222 221 220 220 216 212 206 204 203 199 198 197 195 195 198 203 206 208 209 207 204 196 190 184 184 183 182 182 185 182 180 179 179 180 173 172 170 167 163 158 153
226 222 217 214 212 212 211 209 206 201 200 199 195 194 193 192 194 198 199 200 201 199 197 190 187 184 185 184 182 187 188 188 187 183 183 183 182 179 179 179 180 183 194
221 217 211 209 207 206 208 207 206 207 206 202 200 200 197 197 199 199 196 194 194 193 189 186 185 188 187 186 188 189 191 192 191 190 190 189 188 189 189 191 196 203 217
215 211 208 204 202 201 200 199 203 205 203 205 209 208 203 208 199 195 196 196 194 191 189 189 190 190 189 190 190 191 194 196 195 195 194 196 197 198 201 204 209 218 231
217 212 205 203 202 198 196 197 194 196 203 204 206 206 205 199 199 198 197 195 194 194 198 196 196 194 194 195 194 195 195 198 198 198 199 201 203 206 211 217 224 234 245
215 215 209 202 202 200 198 199 200 194 188 191 196 200 200 201 200 200 195 191 191 197 202 203 201 200 200 198 199 199 200 201 201 202 205 206 210 213 219 225 234 244 255
212 211 208 203 202 202 199 199 199 196 191 189 187 192 197 200 202 202 199 200 198 199 203 209 209 207 204 204 204 204 204 205 206 207 210 212 216 221 226 233 243 253 265
211 212 208 204 201 201 200 200 199 197 196 195 191 189 186 192 193 197 204 205 208 208 208 207 209 210 209 209 208 208 209 210 212 214 217 219 224 229 235 242 253 265 274
209 209 209 206 203 203 201 201 202 201 202 201 202 200 196 194 196 200 205 207 211 214 214 212 211 213 213 213 213 213 214 216 217 219 222 226 231 237 245 254 264 272 278
211 209 209 208 205 206 205 206 203 203 205 204 205 205 208 209 211 213 215 215 217 218 221 220 218 217 216 216 217 218 220 222 223 225 228 233 240 248 257 264 270 274 277
212 210 207 207 209 207 208 208 208 209 209 210 212 211 214 217 221 222 222 224 222 222 221 221 222 222 221 220 222 225 227 228 230 232 234 239 247 256 263 268 271 273 277
212 212 210 207 206 207 207 204 204 208 210 212 215 217 222 226 227 226 228 228 227 226 223 224 225 225 224 224 224 226 228 229 231 235 239 245 252 259 264 267 271 274 276
214 213 211 209 208 206 205 203 202 205 213 214 219 232 231 230 229 231 233 233 231 228 227 227 228 228 226 227 228 229 231 233 236 239 243 247 254 259 262 266 270 273 276
214 212 211 209 208 209 207 207 208 212 216 221 226 226 228 229 229 231 233 234 231 230 229 230 231 229 228 227 228 230 233 236 239 240 243 249 253 257 263 267 271 276 279
Wind_Speed_850mb
93 96 102 100 98 98 99 98 104 99 96 95 83 75 67 67 70 75 75 74 72 65 59 55 50 45 44 37 35 31 30 29 29 26 10 4 3 3 7 12 16 19 21
86 90 97 95 90 95 99 93 96 98 95 93 87 78 71 65 63 69 75 73 72 69 63 57 52 50 46 41 34 33 31 29 29 20 14 13 11 8 8 11 13 16 17
77 83 88 90 88 90 92 93 93 93 92 95 90 86 77 70 63 66 71 71 70 67 62 60 53 52 48 44 40 36 30 30 27 21 22 23 18 16 14 15 15 17 20
71 76 82 88 85 84 88 87 89 87 89 92 91 81 79 70 67 68 69 69 68 62 59 57 53 52 47 44 43 34 33 31 30 28 31 29 26 24 21 21 19 19 19
66 73 78 79 78 77 82 85 88 89 88 88 86 80 77 72 73 69 68 67 65 61 59 54 53 45 46 44 39 38 39 36 35 37 36 35 35 32 27 25 22 20 19
52 65 72 73 74 74 76 81 87 89 87 87 83 79 77 75 74 66 68 67 62 60 59 56 51 47 50 44 39 38 34 37 44 44 42 41 40 37 33 28 24 18 14
47 53 61 65 72 76 76 78 88 91 86 87 80 77 76 76 72 66 67 63 62 61 56 56 54 52 52 47 46 43 42 42 37 37 44 46 43 38 33 30 27 24 22
49 52 56 61 67 72 73 80 86 86 85 85 80 76 77 79 75 72 70 67 65 61 60 54 53 56 54 54 54 52 53 52 50 47 44 46 42 38 35 32 29 25 24
50 54 57 60 64 70 74 77 80 81 80 81 79 80 83 78 74 74 74 73 70 63 57 59 55 55 57 56 57 62 63 59 55 53 51 47 44 41 37 33 30 25 24
52 54 56 59 63 67 67 69 74 74 75 78 78 80 80 75 76 75 76 74 67 67 63 58 58 56 57 59 62 70 70 68 67 64 58 53 48 44 40 32 26 21 18
52 53 56 56 59 59 60 65 69 72 71 73 78 79 75 74 75 76 70 65 70 70 68 68 63 59 60 63 65 66 67 70 67 63 60 55 51 46 39 31 25 20 16
52 52 53 53 54 56 60 65 68 67 72 76 79 77 74 72 72 71 66 66 62 67 68 66 65 66 64 69 69 67 68 70 70 66 62 59 54 45 37 30 25 20 14
52 50 52 52 53 57 61 65 68 71 75 80 81 79 76 72 70 63 63 62 62 64 64 64 68 73 76 76 73 73 75 74 71 69 64 59 49 42 37 30 24 17 10
50 48 49 52 52 56 59 64 71 76 79 82 83 79 76 74 72 72 70 67 65 64 62 66 75 80 80 80 80 78 75 73 71 66 63 54 49 43 38 32 25 18 11
47 46 49 52 55 58 58 63 68 70 72 78 78 79 82 82 80 78 78 74 71 70 72 78 85 86 89 86 82 79 76 74 71 67 62 56 50 46 40 34 28 22 17
49 50 53 57 58 59 59 61 62 62 63 65 65 68 71 69 68 69 68 73 74 78 84 98 99 93 93 94 91 87 82 79 73 66 60 56 51 46 42 38 32 27 23
50 53 56 57 59 61 61 62 64 57 57 57 56 58 59 60 64 68 68 68 68 69 78 84 92 97 97 94 92 91 89 83 73 67 64 60 55 50 45 40 35 30 28
51 53 56 60 61 63 62 63 64 67 67 63 57 55 56 54 58 63 69 71 75 77 82 87 94 101 106 99 95 91 86 80 75 70 69 63 57 54 50 44 39 35 34
55 56 58 59 60 63 63 65 68 68 67 67 63 56 53 51 51 64 72 77 86 90 87 89 96 94 93 95 93 88 82 78 76 75 72 65 60 58 52 46 42 39 39
55 56 58 61 62 63 64 65 66 66 67 67 67 68 65 61 64 72 78 81 81 85 91 90 90 92 95 94 88 83 80 76 76 74 70 66 61 57 52 46 43 41 41
58 57 58 61 63 64 64 64 64 63 64 65 63 60 65 72 75 79 86 87 88 89 86 90 89 89 93 90 85 82 80 76 75 71 68 64 59 55 48 45 43 43 44
60 60 59 62 64 63 66 65 63 64 65 63 60 57 60 65 70 73 78 85 86 82 82 83 84 86 88 86 84 81 79 75 71 67 63 60 55 51 48 46 46 45 45
57 60 62 62 63 62 61 60 58 58 56 55 55 56 61 63 64 68 74 79 84 86 79 78 80 81 81 80 79 77 75 71 66 61 58 56 52 51 50 49 48 47 48
56 58 63 64 65 63 63 63 60 56 53 52 50 50 53 57 66 70 73 77 84 76 72 77 78 78 78 77 78 75 69 65 62 58 54 53 51 50 50 50 49 50 51
52 55 60 63 62 63 61 58 57 53 49 49 46 50 58 64 66 69 72 74 71 70 74 73 72 72 72 72 72 72 69 64 60 56 53 51 50 50 52 51 52 52 51
50 52 55 58 59 62 62 63 63 62 60 56 56 55 57 60 65 70 72 69 66 68 70 70 68 67 69 70 70 69 65 60 58 55 53 53 52 52 51 51 52 52 52
Wind_Direction_850mb
232 231 230 227 226 225 226 227 230 233 238 240 235 230 227 231 234 233 235 235 235 237 238 238 240 238 238 235 234 235 235 237 239 236 257 239 168 79 48 49 44 43 40
231 230 230 229 226 224 225 224 228 231 236 240 237 233 227 228 232 231 230 232 232 234 237 236 236 233 231 232 231 231 231 230 232 227 199 181 167 146 99 83 76 68 60
229 229 228 229 226 225 224 222 226 228 232 236 236 233 225 222 226 229 230 230 231 234 237 238 236 232 229 227 226 223 223 222 218 200 181 175 169 151 131 119 107 90 70
226 226 227 228 223 225 223 218 222 225 230 233 234 233 228 222 222 223 226 227 229 233 235 234 232 230 228 229 222 220 215 212 206 185 175 171 163 152 143 136 121 99 84
225 224 227 229 227 223 221 218 220 224 230 232 233 230 227 222 220 219 221 224 226 225 226 227 226 225 227 224 224 218 208 199 197 180 174 167 161 153 150 138 137 111 86
229 227 229 228 227 223 221 220 220 223 225 229 229 227 224 218 219 219 223 221 221 221 222 219 218 220 219 219 217 212 207 196 188 179 172 166 156 153 146 139 123 119 104
240 233 230 227 226 224 222 220 220 221 223 227 226 221 217 220 217 216 218 220 221 219 219 220 216 215 217 213 205 201 193 181 186 180 168 163 153 148 140 132 123 113 100
244 237 232 227 225 225 223 222 220 222 225 226 222 217 213 215 217 215 212 217 215 217 219 216 220 216 213 208 200 193 184 179 176 170 169 157 153 146 139 132 129 122 107
248 241 235 231 227 224 221 222 222 221 221 222 219 212 211 213 212 213 211 209 210 209 211 216 214 213 210 202 196 187 178 177 171 171 166 162 154 147 143 140 139 133 112
249 247 239 234 230 226 223 220 221 221 218 217 213 212 212 209 210 210 211 210 207 208 207 208 208 205 201 197 191 185 178 175 171 168 168 164 158 155 151 148 137 131 122
244 240 237 234 231 228 223 220 218 214 213 212 209 208 208 207 208 210 210 214 216 209 206 200 196 194 196 189 186 186 181 173 171 170 168 166 164 163 158 153 147 131 117
236 233 232 231 227 223 219 215 214 212 208 205 203 202 201 202 206 208 209 212 212 213 205 199 193 189 188 183 182 184 182 177 173 174 174 172 172 168 163 159 152 145 130
227 226 222 221 220 220 216 212 206 204 203 199 198 197 195 195 198 203 206 208 209 207 204 196 190 184 184 183 182 182 185 182 180 179 179 180 173 172 170 167 163 158 153
226 222 217 214 212 212 211 209 206 201 200 199 195 194 193 192 194 198 199 200 201 199 197 190 187 184 185 184 182 187 188 188 187 183 183 183 182 179 179 179 180 183 194
221 217 211 209 207 206 208 207 206 207 206 202 200 200 197 197 199 199 196 194 194 193 189 186 185 188 187 186 188 189 191 192 191 190 190 189 188 189 189 191 196 203 217
215 211 208 204 202 201 200 199 203 205 203 205 209 208 203 208 199 195 196 196 194 191 189 189 190 190 189 190 190 191 194 196 195 195 194 196 197 198 201 204 209 218 231
217 212 205 203 202 198 196 197 194 196 203 204 206 206 205 199 199 198 197 195 194 194 198 196 196 194 194 195 194 195 195 198 198 198 199 201 203 206 211 217 224 234 245
215 215 209 202 202 200 198 199 200 194 188 191 196 200 200 201 200 200 195 191 191 197 202 203 201 200 200 198 199 199 200 201 201 202 205 206 210 213 219 225 234 244 255
212 211 208 203 202 202 199 199 199 196 191 189 187 192 197 200 202 202 199 200 198 199 203 209 209 207 204 204 204 204 204 205 206 207 210 212 216 221 226 233 243 253 265
211 212 208 204 201 201 200 200 199 197 196 195 191 189 186 192 193 197 204 205 208 208 208 207 209 210 209 209 208 208 209 210 212 214 217 219 224 229 235 242 253 265 274
209 209 209 206 203 203 201 201 202 201 202 201 202 200 196 194 196 200 205 207 211 214 214 212 211 213 213 213 213 213 214 216 217 219 222 226 231 237 245 254 264 272 278
211 209 209 208 205 206 205 206 203 203 205 204 205 205 208 209 211 213 215 215 217 218 221 220 218 217 216 216 217 218 220 222 223 225 228 233 240 248 257 264 270 274 277
212 210 207 207 209 207 208 208 208 209 209 210 212 211 214 217 221 222 222 224 222 222 221 221 222 222 221 220 222 225 227 228 230 232 234 239 247 256 263 268 271 273 277
212 212 210 207 206 207 207 204 204 208 210 212 215 217 222 226 227 226 228 228 227 226 223 224 225 225 224 224 224 226 228 229 231 235 239 245 252 259 264 267 271 274 276
214 213 211 209 208 206 205 203 202 205 213 214 219 232 231 230 229 231 233 233 231 228 227 227 228 228 226 227 228 229 231 233 236 239 243 247 254 259 262 266 270 273 276
214 212 211 209 208 209 207 207 208 212 216 221 226 226 228 229 229 231 233 234 231 230 229 230 231 229 228 227 228 230 233 236 239 240 243 249 253 257 263 267 271 276 279